EW7966 Weather Reports


time (UTC)temp
C
wind
direction
speed
KPH
gust
KPH
rain 1hr
cm
rain 24hr
cm
rain mn
cm
humidity
%
barometer
mb
20260901131505 15 233 4.8 11.3 0.00 0.00 0.00 76 1020.3
20260901131502 15 233 3.2 11.3 0.00 0.00 0.00 76 1005.4
20260901131006 15 223 4.8 12.9 0.00 0.00 0.00 77 1020.2
20260901130505 15 200 6.4 12.9 0.00 0.00 0.00 77 1020.1
20260901130057 15 173 6.4 12.9 0.00 0.00 0.00 77 1005.2
20260901130007 15 227 8.0 12.9 0.00 0.00 0.00 77 1020.1
20260901130003 15 227 6.4 12.9 0.00 0.00 0.00 77 1005.2
20260901125504 15 205 4.8 12.9 0.00 0.00 0.00 77 1019.9
20260901125006 15 196 6.4 16.1 0.00 0.00 0.00 77 1019.9
20260901124505 15 201 6.4 16.1 0.00 0.00 0.00 77 1019.8
20260901124006 15 202 6.4 12.9 0.00 0.00 0.00 77 1019.9
20260901123504 15 209 6.4 14.5 0.00 0.00 0.00 76 1019.8
20260901123006 15 240 6.4 14.5 0.00 0.00 0.00 76 1004.7
20260901122505 15 233 6.4 11.3 0.00 0.00 0.00 76 1019.6
20260901122004 15 265 6.4 12.9 0.00 0.00 0.00 76 1019.5
20260901121502 15 206 4.8 11.3 0.00 0.00 0.00 77 1004.6
20260901121005 15 201 3.2 8.0 0.00 0.00 0.00 77 1019.4
20260901120006 15 234 4.8 11.3 0.00 0.00 0.00 77 1019.4
20260901114504 14 226 4.8 8.0 0.00 0.00 0.00 79 1019.5
20260901114005 14 226 1.6 4.8 0.00 0.00 0.00 79 1019.5
20260901113505 14 226 0.0 3.2 0.00 0.00 0.00 79 1019.6
20260901113006 14 226 0.0 9.7 0.00 0.00 0.00 79 1019.6
20260901113003 14 226 0.0 9.7 0.00 0.00 0.00 79 1004.8
20260901112504 14 173 3.2 8.0 0.00 0.00 0.00 80 1019.9
20260901112006 14 173 4.8 8.0 0.00 0.00 0.00 80 1019.8
20260901111503 14 173 3.2 6.4 0.00 0.00 0.00 80 1019.9
20260901111000 14 173 3.2 6.4 0.00 0.00 0.00 80 1019.9
20260901110003 14 173 1.6 6.4 0.00 0.00 0.00 80 1005.3
20260901105504 14 173 3.2 6.4 0.00 0.00 0.00 79 1020.1
20260901104505 14 173 3.2 4.8 0.00 0.00 0.00 79 1020.2
20260901104502 14 173 1.6 4.8 0.00 0.00 0.00 79 1005.4
20260901104006 14 173 1.6 4.8 0.00 0.00 0.00 80 1020.3
20260901103504 14 173 1.6 4.8 0.00 0.00 0.00 80 1020.2
20260901103005 14 173 0.0 3.2 0.00 0.00 0.00 80 1020.2
20260901103002 14 173 0.0 3.2 0.00 0.00 0.00 80 1005.4
20260901102504 14 173 0.0 4.8 0.00 0.00 0.00 79 1020.3
20260901102006 14 173 1.6 4.8 0.00 0.00 0.00 79 1020.2
20260901101503 14 173 0.0 3.2 0.00 0.00 0.00 80 1005.6
20260901101005 14 173 0.0 3.2 0.00 0.00 0.00 79 1020.4
20260901100504 14 173 0.0 4.8 0.00 0.00 0.00 78 1020.3
20260901100009 14 173 0.0 4.8 0.00 0.00 0.00 78 1020.4
20260901100003 14 173 0.0 4.8 0.00 0.00 0.00 78 1005.7
20260901095006 14 173 3.2 9.7 0.00 0.00 0.00 78 1020.6
20260901094507 14 173 4.8 9.7 0.00 0.00 0.00 79 1006.0
20260901094505 14 173 6.4 9.7 0.00 0.00 0.00 79 1020.7
20260901093504 13 112 4.8 6.4 0.00 0.00 0.00 80 1020.7
20260901093006 13 112 1.6 3.2 0.00 0.00 0.00 80 1020.7
20260901093002 13 112 0.0 3.2 0.00 0.00 0.00 80 1006.0
20260901092504 13 112 1.6 6.4 0.00 0.00 0.00 79 1020.7
20260901092005 14 112 3.2 6.4 0.00 0.00 0.00 79 1020.8
20260901091505 13 112 4.8 6.4 0.00 0.00 0.00 79 1020.8
20260901091503 13 112 4.8 6.4 0.00 0.00 0.00 79 1006.2
20260901091005 13 112 4.8 6.4 0.00 0.00 0.00 80 1020.8
20260901090504 13 112 3.2 3.2 0.00 0.00 0.00 81 1021.0
20260901090104 13 112 0.0 0.0 0.00 0.00 0.00 81 1006.3
20260901090000 13 112 0.0 0.0 0.00 0.00 0.00 81 1021.0
20260901085504 13 112 0.0 3.2 0.00 0.00 0.00 81 1021.0
20260901085006 13 112 1.6 3.2 0.00 0.00 0.00 81 1021.0
20260901084504 13 112 0.0 4.8 0.00 0.00 0.00 81 1021.0
20260901084502 13 112 0.0 4.8 0.00 0.00 0.00 81 1006.3
20260901084005 13 112 1.6 9.7 0.00 0.00 0.00 80 1020.9
20260901083505 13 112 8.0 9.7 0.00 0.00 0.00 79 1021.0
20260901083058 13 184 3.2 6.4 0.00 0.00 0.00 78 1006.5
20260901083005 13 184 3.2 4.8 0.00 0.00 0.00 78 1021.2
20260901083003 13 184 1.6 4.8 0.00 0.00 0.00 78 1006.5
20260901082506 13 184 1.6 4.8 0.00 0.00 0.00 78 1021.2
20260901082005 13 184 1.6 3.2 0.00 0.00 0.00 78 1021.5
20260901081504 13 184 1.6 3.2 0.00 0.00 0.00 78 1021.5
20260901081004 13 184 1.6 4.8 0.00 0.00 0.00 78 1021.5
20260901080504 13 184 1.6 3.2 0.00 0.00 0.00 79 1021.6
20260901080007 13 184 1.6 3.2 0.00 0.00 0.00 80 1021.6
20260901080005 13 184 1.6 3.2 0.00 0.00 0.00 80 1006.9
20260901075504 13 184 0.0 4.8 0.00 0.00 0.00 80 1021.7
20260901075005 13 184 0.0 4.8 0.00 0.00 0.00 80 1021.6
20260901074504 12 184 3.2 6.4 0.00 0.00 0.00 81 1021.7
20260901074502 12 184 1.6 6.4 0.00 0.00 0.00 81 1007.0
20260901074005 12 184 4.8 6.4 0.00 0.00 0.00 82 1021.7
20260901073504 12 184 1.6 4.8 0.00 0.00 0.00 81 1021.8
20260901073006 12 184 0.0 3.2 0.00 0.00 0.00 81 1021.8
20260901073002 12 184 0.0 3.2 0.00 0.00 0.00 81 1007.1
20260901072504 12 184 0.0 1.6 0.00 0.00 0.00 80 1021.8
20260901072001 12 184 0.0 4.8 0.00 0.00 0.00 79 1021.7
20260901071600 12 184 0.0 4.8 0.00 0.00 0.00 79 1006.9
20260901071502 12 184 0.0 4.8 0.00 0.00 0.00 79 1021.6
20260901071006 12 184 3.2 4.8 0.00 0.00 0.00 79 1021.6
20260901070505 13 184 1.6 3.2 0.00 0.00 0.00 77 1021.6
20260901070007 13 184 1.6 3.2 0.00 0.00 0.00 75 1021.6
20260901070002 13 184 0.0 3.2 0.00 0.00 0.00 75 1007.0
20260901064505 15 184 1.6 4.8 0.00 0.00 0.00 73 1021.6
20260901064503 15 184 1.6 4.8 0.00 0.00 0.00 73 1006.9
20260901064006 15 184 1.6 3.2 0.00 0.00 0.00 73 1021.5
20260901063504 15 184 0.0 1.6 0.00 0.00 0.00 73 1021.3
20260901063005 14 184 0.0 3.2 0.00 0.00 0.00 73 1021.2
20260901062505 15 184 1.6 3.2 0.00 0.00 0.00 73 1021.4
20260901061502 15 184 0.0 3.2 0.00 0.00 0.00 72 1006.7
20260901061006 15 184 1.6 3.2 0.00 0.00 0.00 72 1021.5
20260901060505 15 184 0.0 6.4 0.00 0.00 0.00 72 1021.5
20260901060008 15 184 4.8 6.4 0.00 0.00 0.00 73 1021.6
20260901060004 15 184 3.2 6.4 0.00 0.00 0.00 73 1006.9
20260901055505 15 184 1.6 4.8 0.00 0.03 0.00 73 1021.6
20260901055006 15 184 1.6 4.8 0.00 0.03 0.00 74 1021.7
20260901054558 15 184 1.6 4.8 0.00 0.03 0.00 74 1006.9
20260901054500 15 184 1.6 4.8 0.00 0.03 0.00 74 1021.6
20260901054006 15 184 0.0 3.2 0.00 0.03 0.00 75 1021.8
20260901053504 15 184 1.6 3.2 0.00 0.03 0.00 75 1021.8
20260901053007 15 184 0.0 6.4 0.00 0.03 0.00 75 1021.8
20260901053004 15 184 0.0 6.4 0.00 0.03 0.00 75 1007.0
20260901052504 15 184 3.2 6.4 0.00 0.03 0.00 75 1021.9
20260901051503 15 184 1.6 4.8 0.00 0.03 0.00 75 1007.0
20260901051006 15 184 3.2 6.4 0.00 0.03 0.00 74 1021.8
20260901050506 15 184 1.6 14.5 0.00 0.03 0.00 73 1021.8
20260901050006 15 184 8.0 14.5 0.00 0.03 0.00 74 1022.0
20260901050004 15 184 8.0 14.5 0.00 0.03 0.00 74 1007.2
20260901045506 15 189 6.4 14.5 0.00 0.05 0.00 75 1022.0
20260901044507 15 171 11.3 16.1 0.00 0.05 0.00 76 1021.8
20260901044006 15 144 11.3 12.9 0.00 0.05 0.00 76 1022.0
20260901043007 15 138 9.7 12.9 0.00 0.05 0.00 76 1021.8
20260901043003 15 138 8.0 12.9 0.00 0.05 0.00 76 1007.0
20260901042505 15 161 6.4 11.3 0.00 0.05 0.00 76 1021.6
20260901041505 15 120 8.0 11.3 0.00 0.05 0.00 75 1021.6
20260901041503 15 120 6.4 11.3 0.00 0.05 0.00 75 1006.8
20260901040505 15 265 3.2 9.7 0.00 0.05 0.00 74 1021.7
20260901040003 15 265 1.6 9.7 0.00 0.05 0.00 74 1006.9
20260901035505 16 265 3.2 8.0 0.00 0.05 0.00 73 1021.6
20260901035007 16 265 3.2 8.0 0.00 0.05 0.00 73 1021.6
20260901034506 16 220 4.8 9.7 0.00 0.05 0.00 73 1021.8
20260901034007 16 275 1.6 11.3 0.00 0.05 0.00 72 1022.0
20260901033505 16 275 4.8 17.7 0.00 0.05 0.00 72 1021.9
20260901033059 16 273 3.2 20.9 0.00 0.05 0.00 72 1007.0
20260901033001 16 273 6.4 20.9 0.00 0.05 0.00 72 1021.8
20260901032505 16 304 9.7 22.5 0.00 0.05 0.00 72 1021.8
20260901032006 16 302 11.3 24.1 0.00 0.05 0.00 72 1021.8
20260901031505 16 287 16.1 27.4 0.00 0.05 0.00 71 1021.8
20260901031503 16 287 14.5 27.4 0.00 0.05 0.00 71 1007.1
20260901031001 17 288 17.7 32.2 0.00 0.05 0.00 68 1021.8
20260901030506 17 311 17.7 29.0 0.00 0.05 0.00 67 1021.8
20260901030007 17 290 14.5 27.4 0.00 0.05 0.00 65 1021.9
20260901030005 17 290 12.9 27.4 0.00 0.05 0.00 65 1007.3
20260901025506 17 312 16.1 22.5 0.00 0.05 0.00 63 1021.9
20260901025006 18 312 9.7 19.3 0.00 0.05 0.00 62 1021.8
20260901024505 18 277 8.0 27.4 0.00 0.05 0.00 61 1021.8
20260901024502 18 277 8.0 27.4 0.00 0.05 0.00 61 1007.2
20260901024006 18 284 11.3 22.5 0.00 0.05 0.00 60 1021.7
20260901023506 18 328 8.0 22.5 0.00 0.05 0.00 59 1021.5
20260901023006 18 342 11.3 22.5 0.00 0.05 0.00 59 1021.2
20260901023003 18 262 9.7 22.5 0.00 0.05 0.00 59 1006.6
20260901022501 19 210 12.9 33.8 0.00 0.05 0.00 57 1021.2
20260901022007 20 331 14.5 33.8 0.00 0.05 0.00 52 1021.0
20260901021504 20 241 9.7 17.7 0.00 0.05 0.00 47 1020.8
20260901021006 20 200 3.2 6.4 0.00 0.05 0.00 47 1020.3
20260901020008 21 200 3.2 9.7 0.00 0.05 0.00 45 1019.7
20260901020005 21 200 1.6 9.7 0.00 0.05 0.00 45 1005.1
20260901015505 21 200 6.4 12.9 0.00 0.05 0.00 45 1019.7
20260901015007 21 180 9.7 12.9 0.00 0.05 0.00 45 1019.5
20260901014504 21 170 9.7 16.1 0.00 0.05 0.00 46 1019.4
20260901014502 21 170 8.0 16.1 0.00 0.05 0.00 46 1004.8
20260901014006 21 176 9.7 16.1 0.00 0.05 0.00 46 1019.3
20260901013007 21 142 9.7 16.1 0.00 0.05 0.00 46 1019.3
20260901013004 21 142 9.7 16.1 0.00 0.05 0.00 46 1004.6
20260901012012 21 140 14.5 20.9 0.00 0.05 0.00 46 1019.3
20260901011506 21 162 12.9 19.3 0.00 0.05 0.00 46 1019.3
20260901011006 21 151 9.7 17.7 0.00 0.05 0.00 46 1019.3
20260901010505 21 161 11.3 19.3 0.00 0.05 0.00 46 1019.3
20260901010007 21 136 12.9 20.9 0.00 0.05 0.00 45 1019.3
20260901010004 21 136 12.9 20.9 0.00 0.05 0.00 45 1004.6
20260901005506 21 150 16.1 25.7 0.00 0.05 0.00 44 1019.2
20260901005007 21 159 17.7 27.4 0.00 0.05 0.00 43 1019.3
20260901004505 22 158 17.7 30.6 0.00 0.05 0.00 43 1019.5
20260901003506 23 127 20.9 27.4 0.00 0.05 0.00 40 1019.7
20260901003007 23 109 16.1 32.2 0.00 0.05 0.00 40 1019.7
20260901002505 23 105 22.5 32.2 0.00 0.05 0.00 41 1019.7
20260901002006 23 76 19.3 29.0 0.00 0.05 0.00 43 1019.6
20260901001502 23 92 16.1 29.0 0.00 0.05 0.00 42 1005.2
20260901001006 24 96 19.3 29.0 0.00 0.05 0.00 41 1019.7
20260901000505 24 94 16.1 25.7 0.00 0.05 0.00 42 1019.8
20260901000004 24 92 16.1 25.7 0.00 0.05 0.00 40 1005.4
20260831235505 25 110 12.9 24.1 0.00 0.05 0.00 39 1019.9
20260831234506 25 107 17.7 27.4 0.00 0.05 0.00 38 1005.3
20260831234007 25 113 14.5 20.9 0.00 0.05 0.00 37 1019.9
20260831233506 25 109 12.9 19.3 0.00 0.05 0.00 38 1019.8
20260831233004 25 104 11.3 19.3 0.00 0.05 0.00 38 1005.5
20260831232008 25 78 9.7 19.3 0.00 0.05 0.00 37 1020.0
20260831231505 25 98 12.9 19.3 0.00 0.05 0.00 37 1020.0
20260831231503 25 98 12.9 19.3 0.00 0.05 0.00 37 1005.8
20260831230506 25 67 9.7 17.7 0.00 0.05 0.00 38 1020.0
20260831230009 24 57 9.7 17.7 0.00 0.05 0.00 37 1020.0
20260831230004 24 57 9.7 17.7 0.00 0.05 0.00 37 1005.9
20260831225505 24 87 11.3 14.5 0.00 0.05 0.00 38 1020.1
20260831225002 24 83 6.4 12.9 0.00 0.05 0.00 37 1020.1
20260831224505 24 99 8.0 14.5 0.00 0.05 0.00 37 1020.3
20260831224503 24 99 8.0 14.5 0.00 0.05 0.00 37 1006.2
20260831224007 25 84 9.7 17.7 0.00 0.05 0.00 36 1020.3
20260831223505 25 78 6.4 17.7 0.00 0.05 0.00 34 1020.2
20260831223005 25 106 3.2 14.5 0.00 0.05 0.00 34 1020.4
20260831223003 25 106 3.2 14.5 0.00 0.05 0.00 34 1006.3
20260831222505 25 90 8.0 17.7 0.00 0.05 0.00 33 1020.5
20260831221503 25 128 1.6 14.5 0.00 0.05 0.00 32 1006.6
20260831220011 25 94 8.0 14.5 0.00 0.05 0.00 32 1020.7
20260831220003 25 94 8.0 14.5 0.00 0.05 0.00 32 1006.7
20260831215504 25 130 6.4 12.9 0.00 0.05 0.00 33 1020.7
20260831214504 25 91 4.8 14.5 0.00 0.05 0.00 35 1020.6
20260831213505 25 154 6.4 11.3 0.00 0.05 0.00 33 1020.9
20260831213003 25 124 4.8 11.3 0.00 0.05 0.00 35 1007.0
20260831212505 24 163 8.0 14.5 0.00 0.05 0.00 35 1021.1
20260831212007 24 150 4.8 14.5 0.00 0.05 0.00 35 1021.1
20260831211505 24 89 6.4 14.5 0.00 0.05 0.00 35 1021.1
20260831211503 24 89 4.8 14.5 0.00 0.05 0.00 35 1007.1
20260831211006 25 119 11.3 14.5 0.00 0.05 0.00 34 1021.2
20260831210505 25 112 9.7 14.5 0.00 0.05 0.00 35 1021.1
20260831210006 25 149 9.7 16.1 0.00 0.05 0.00 35 1021.1
20260831210003 25 149 8.0 16.1 0.00 0.05 0.00 35 1007.1
20260831205006 25 174 11.3 19.3 0.00 0.05 0.00 34 1021.3
20260831204505 24 171 11.3 16.1 0.00 0.05 0.00 34 1021.4
20260831204503 24 171 9.7 16.1 0.00 0.05 0.00 34 1007.3
20260831204005 24 148 8.0 14.5 0.00 0.05 0.00 34 1021.4
20260831203505 24 159 4.8 12.9 0.00 0.05 0.00 32 1021.5
20260831203007 24 138 4.8 16.1 0.00 0.05 0.00 34 1021.6
20260831203002 24 138 3.2 16.1 0.00 0.05 0.00 34 1007.5
20260831202504 24 169 8.0 16.1 0.00 0.05 0.00 36 1021.6
20260831202006 24 138 8.0 16.1 0.00 0.05 0.00 35 1021.6
20260831201559 24 93 11.3 17.7 0.00 0.05 0.00 36 1007.7
20260831201505 24 107 11.3 17.7 0.00 0.05 0.00 35 1021.7
20260831201007 25 134 11.3 17.7 0.00 0.05 0.00 35 1021.6
20260831200504 25 61 8.0 14.5 0.00 0.05 0.00 35 1021.7
20260831200008 24 164 6.4 16.1 0.00 0.05 0.00 34 1007.8
20260831195505 24 130 11.3 16.1 0.00 0.05 0.00 37 1021.8
20260831195007 25 128 8.0 16.1 0.00 0.05 0.00 35 1021.8
20260831194505 25 107 8.0 20.9 0.00 0.05 0.00 34 1021.9
20260831194503 25 107 6.4 20.9 0.00 0.05 0.00 34 1007.9
20260831194005 25 120 8.0 17.7 0.00 0.05 0.00 35 1021.9
20260831193505 25 96 9.7 16.1 0.00 0.05 0.00 34 1021.9
20260831193006 25 105 9.7 14.5 0.00 0.05 0.00 33 1022.0
20260831193003 25 117 9.7 14.5 0.00 0.05 0.00 33 1008.0
20260831192006 25 137 9.7 17.7 0.00 0.05 0.00 35 1022.0
20260831191506 25 46 8.0 17.7 0.00 0.05 0.00 35 1022.0
20260831191503 25 46 8.0 17.7 0.00 0.05 0.00 35 1008.0
20260831191008 25 57 6.4 17.7 0.00 0.05 0.00 35 1022.1
20260831190006 25 64 4.8 11.3 0.00 0.05 0.00 34 1022.2
20260831190003 25 64 3.2 11.3 0.00 0.05 0.00 34 1008.2
20260831185505 25 327 3.2 16.1 0.00 0.05 0.00 37 1022.3
20260831185006 25 44 9.7 16.1 0.00 0.05 0.00 35 1022.4
20260831184505 25 47 4.8 17.7 0.00 0.05 0.00 34 1022.4
20260831184503 25 47 4.8 17.7 0.00 0.05 0.00 34 1008.3
20260831184006 25 46 8.0 17.7 0.00 0.05 0.00 36 1022.4
20260831183507 24 345 6.4 14.5 0.00 0.05 0.00 38 1022.4
20260831183006 24 61 6.4 14.5 0.00 0.05 0.00 36 1022.4
20260831183004 24 61 4.8 14.5 0.00 0.05 0.00 36 1008.4
20260831182506 23 50 4.8 11.3 0.00 0.05 0.00 36 1022.6
20260831182007 23 56 4.8 11.3 0.00 0.05 0.00 35 1022.6
20260831181504 24 62 6.4 9.7 0.00 0.05 0.00 36 1022.7
20260831181007 24 19 3.2 12.9 0.00 0.05 0.00 34 1022.7
20260831180505 24 19 1.6 12.9 0.00 0.05 0.00 36 1022.8
20260831180007 24 20 8.0 12.9 0.00 0.05 0.00 34 1022.8
20260831180004 24 20 8.0 12.9 0.00 0.05 0.00 34 1008.7
20260831175008 24 42 4.8 9.7 0.00 0.05 0.00 36 1022.7
20260831174505 24 340 1.6 9.7 0.00 0.05 0.00 35 1022.8
20260831174503 24 340 1.6 9.7 0.00 0.05 0.00 35 1008.7
20260831174006 24 340 4.8 11.3 0.00 0.05 0.00 37 1022.7
20260831173504 24 49 8.0 12.9 0.00 0.05 0.00 36 1022.7
20260831173002 24 25 3.2 8.0 0.00 0.05 0.00 35 1008.7
20260831172505 24 9 3.2 6.4 0.00 0.05 0.00 36 1022.8
20260831171503 23 5 1.6 6.4 0.00 0.05 0.00 39 1008.7
20260831171006 23 314 1.6 4.8 0.00 0.05 0.00 37 1022.8
20260831170504 23 181 0.0 6.4 0.00 0.05 0.00 37 1023.0
20260831170007 23 233 4.8 6.4 0.00 0.05 0.00 38 1022.8
20260831170005 23 233 3.2 6.4 0.00 0.05 0.00 38 1008.8
20260831165504 23 242 3.2 4.8 0.00 0.05 0.00 37 1022.9
20260831165007 23 54 1.6 6.4 0.00 0.05 0.00 38 1023.0
20260831164509 23 79 1.6 6.4 0.00 0.05 0.00 38 1008.9
20260831164505 23 79 1.6 6.4 0.00 0.05 0.00 38 1022.9
20260831163006 22 316 3.2 6.4 0.00 0.05 0.00 40 1022.8
20260831163003 22 316 3.2 6.4 0.00 0.05 0.00 40 1008.8
20260831162006 22 294 3.2 6.4 0.00 0.05 0.00 39 1022.7
20260831161505 22 294 3.2 6.4 0.00 0.05 0.00 39 1022.7
20260831161503 22 294 1.6 6.4 0.00 0.05 0.00 39 1008.6
20260831161007 22 294 1.6 8.0 0.00 0.05 0.00 38 1022.6
20260831160505 22 294 3.2 8.0 0.00 0.05 0.00 39 1022.6
20260831160007 22 63 3.2 6.4 0.00 0.05 0.00 38 1022.6
20260831160003 22 63 1.6 6.4 0.00 0.05 0.00 38 1008.5
20260831155505 22 215 3.2 6.4 0.00 0.05 0.00 38 1022.5
20260831155008 22 215 3.2 4.8 0.00 0.05 0.00 43 1022.5
20260831154504 21 215 1.6 6.4 0.00 0.05 0.00 44 1008.3
20260831154002 21 215 1.6 6.4 0.00 0.05 0.00 46 1022.6
20260831153505 21 215 0.0 4.8 0.00 0.05 0.00 50 1022.4
20260831153009 21 215 1.6 8.0 0.00 0.05 0.00 52 1008.2
20260831153007 21 215 1.6 8.0 0.00 0.05 0.00 52 1022.4
20260831152505 20 215 3.2 8.0 0.00 0.05 0.00 52 1022.4
20260831152006 20 215 3.2 9.7 0.00 0.05 0.00 53 1022.4
20260831151506 20 215 4.8 9.7 0.00 0.05 0.00 51 1022.4
20260831151503 20 215 3.2 9.7 0.00 0.05 0.00 51 1008.3
20260831151005 20 258 1.6 8.0 0.00 0.05 0.00 53 1022.4
20260831150506 20 205 4.8 9.7 0.00 0.05 0.00 51 1022.3
20260831150007 20 205 4.8 9.7 0.00 0.05 0.00 51 1022.4
20260831150004 20 205 3.2 9.7 0.00 0.05 0.00 51 1008.3
20260831145504 20 192 4.8 9.7 0.00 0.05 0.00 52 1022.4
20260831144558 20 235 1.6 12.9 0.00 0.05 0.00 54 1008.2
20260831144505 20 235 3.2 12.9 0.00 0.05 0.00 54 1022.4
20260831144502 20 235 3.2 12.9 0.00 0.05 0.00 54 1008.2
20260831144005 19 221 4.8 12.9 0.00 0.05 0.00 53 1022.4
20260831143505 19 223 8.0 12.9 0.00 0.05 0.00 52 1022.3
20260831143006 18 190 6.4 8.0 0.00 0.05 0.00 54 1022.3
20260831143003 18 190 4.8 8.0 0.00 0.05 0.00 54 1008.2
20260831142505 18 175 4.8 8.0 0.00 0.05 0.00 56 1022.2
20260831142006 18 175 6.4 8.0 0.00 0.05 0.00 54 1022.2
20260831141505 18 205 3.2 8.0 0.00 0.05 0.00 55 1008.1
20260831141005 17 214 3.2 9.7 0.00 0.05 0.00 55 1022.1
20260831140008 17 236 4.8 9.7 0.00 0.05 0.00 56 1022.1
20260831140003 17 236 4.8 9.7 0.00 0.05 0.00 56 1008.0
20260831135504 17 227 6.4 11.3 0.00 0.05 0.00 58 1022.1
20260831135005 17 225 6.4 11.3 0.00 0.05 0.00 57 1022.1
20260831134503 17 217 6.4 9.7 0.00 0.05 0.00 57 1007.9
20260831133506 16 236 6.4 12.9 0.00 0.05 0.00 58 1021.8
20260831133006 16 198 4.8 8.0 0.00 0.05 0.00 60 1007.8
20260831132504 16 215 3.2 9.7 0.00 0.05 0.00 61 1021.7